Weather History for KPOU - July, 2014

Change the Weather History Date:

Saturday, July 19, 2014

  Actual Average Record
Temperature  
Mean Temperature 69 °F 73 °F  
Max Temperature 78 °F 85 °F 102 °F (1991)
Min Temperature 60 °F 61 °F 51 °F (1956)
Degree Days  
Heating Degree Days 0 0  
Month to date heating degree days 0 0  
Since 1 June heating degree days 7 49  
Since 1 July heating degree days 0 0  
Cooling Degree Days 4 0  
Month to date cooling degree days 180 144  
Year to date cooling degree days 351 307  
Since 1 June cooling degree days 318 271  
Growing Degree Days 19 (Base 50)    
Moisture  
Dew Point 59 °F    
Average Humidity 74    
Maximum Humidity 93    
Minimum Humidity 52    
Precipitation  
Precipitation 0.00 in 0.16 in 1.93 in (2002)
Month to date precipitation 4.12 2.73  
Year to date precipitation 20.44 24.66  
Sea Level Pressure  
Sea Level Pressure 30.21 in    
Wind  
Wind Speed 1 mph (ESE)    
Max Wind Speed 8 mph    
Max Gust Speed -    
Visibility 10 miles    
Events      
T = Trace of Precipitation, MM = Missing Value Source: NWS Daily Summary

Daily Weather History Graph

Daily Weather History Graph

Search for Another Location

Airport or City:

Trip Planner

Search our weather history database for the weather conditions in past years. The results will help you decide how hot, cold, wet, or windy it might be!

Date:

Astronomy

Jul. 19, 2014 Rise Set
Actual Time 5:37 AM EDT 8:25 PM EDT
Civil Twilight 5:05 AM EDT 8:58 PM EDT
Nautical Twilight 4:23 AM EDT 9:38 PM EDT
Astronomical Twilight 3:36 AM EDT 10:26 PM EDT
Moon 12:13 AM EDT (7/19) 2:02 PM EDT (7/19)
Length of Visible Light 15h 52m
Length of Day
14h 47m
Last Quarter, 44% of the Moon is Illuminated
Jul 19
Last Quarter
Jul 26
New
Aug 3
First Quarter
Aug 10
Full
Aug 17
Last Quarter

Hourly Weather History & Observations

Time (EDT) Temp. Dew Point Humidity Pressure Visibility Wind Dir Wind Speed Gust Speed Precip Events Conditions
12:53 AM 62.1 °F 59.0 °F 90% 30.22 in 10.0 mi Calm Calm - N/A   Clear
1:53 AM 61.0 °F 57.9 °F 90% 30.21 in 10.0 mi Calm Calm - N/A   Clear
2:53 AM 62.1 °F 59.0 °F 90% 30.22 in 10.0 mi Calm Calm - N/A   Clear
3:53 AM 61.0 °F 57.9 °F 90% 30.23 in 10.0 mi Calm Calm - N/A   Clear
4:53 AM 60.1 °F 57.9 °F 93% 30.23 in 10.0 mi Calm Calm - N/A   Clear
5:53 AM 61.0 °F 57.9 °F 90% 30.23 in 10.0 mi Calm Calm - N/A   Clear
6:53 AM 62.1 °F 59.0 °F 90% 30.25 in 10.0 mi Calm Calm - N/A   Clear
7:53 AM 64.0 °F 59.0 °F 84% 30.25 in 10.0 mi Calm Calm - N/A   Clear
8:53 AM 66.0 °F 60.1 °F 81% 30.24 in 10.0 mi North 4.6 mph - N/A   Overcast
9:53 AM 68.0 °F 61.0 °F 78% 30.25 in 10.0 mi Calm Calm - N/A   Clear
10:53 AM 70.0 °F 61.0 °F 73% 30.24 in 10.0 mi Calm Calm - N/A   Clear
12:53 PM 75.9 °F 59.0 °F 56% 30.22 in 10.0 mi Calm Calm - N/A   Clear
1:53 PM 78.1 °F 59.0 °F 52% 30.19 in 10.0 mi SE 5.8 mph - N/A   Clear
2:53 PM 77.0 °F 60.1 °F 56% 30.20 in 10.0 mi SE 5.8 mph - N/A   Clear
3:53 PM 77.0 °F 59.0 °F 54% 30.19 in 10.0 mi Variable 4.6 mph - N/A   Scattered Clouds
4:53 PM 77.0 °F 60.1 °F 56% 30.19 in 10.0 mi SE 4.6 mph - N/A   Partly Cloudy
5:53 PM 77.0 °F 60.1 °F 56% 30.18 in 10.0 mi SE 8.1 mph - N/A   Clear
6:53 PM 75.9 °F 57.9 °F 54% 30.18 in 10.0 mi SE 6.9 mph - N/A   Clear
7:53 PM 73.0 °F 57.0 °F 57% 30.18 in 10.0 mi Calm Calm - N/A   Clear
8:53 PM 70.0 °F 57.9 °F 65% 30.19 in 10.0 mi Calm Calm - N/A   Clear
9:53 PM 64.9 °F 59.0 °F 81% 30.18 in 10.0 mi Calm Calm - N/A   Clear
11:53 PM 63.0 °F 59.0 °F 87% 30.17 in 10.0 mi Calm Calm - N/A   Clear